Flag for Greece Weather past 2 weeks in Heraklion, Crete, Greece

Now
84 °F

Passing clouds.


Feels Like: 90 °F
Forecast: 73 / 86 °F
Wind: 24 mph from Northwest

Location: Heraklion Airport

Current Time: Aug 1, 2014 at 7:06:21 PM

Latest Report: Aug 1, 2014 at 6:20 PM


Visibility: N/A

Pressure: 29.68 "Hg

Humidity: 66%

Dew point: 72 °F

Location of HeraklionLocation

Historic Weather in Heraklion — Graph

°F

Heraklion temperature yesterday

Maximum temperature yesterday: 90 °F (at 10:20 AM)
Minimum temperature yesterday: 73 °F (at 6:50 AM)
Average temperature yesterday: 82 °F

Past Weeks' High & Low Weather Summary

 TemperatureHumidityPressure
High90 °F (Jul 22, 3:50 PM)94% (Jul 18, 3:50 AM)29.92 "Hg (Jul 18, 3:50 AM)
Low68 °F (Jul 18, 3:50 AM)46% (Jul 31, 11:20 AM)29.65 "Hg (Aug 1, 5:50 AM)
Average80 °F71%29.80 "Hg
* Reported Jul 17 5:20 PM — Aug 1 5:50 PM, Heraklion, Weather by CustomWeather, © 2014

Note: Actual official high and low records may vary slightly from our data, if they occured in-between our weather recording intervals... More about our weather records

Advertising

Heraklion weather history for previous 24 hours

 ConditionsComfort  
Time TempWeatherWind HumidityBarometerVisibility
5:50 PM
Aug 1
84 °FPassing clouds.23 mph66%29.68 "HgN/A
5:20 PM84 °FPassing clouds.25 mph66%29.68 "HgN/A
4:50 PM84 °FPassing clouds.26 mph66%29.68 "HgN/A
4:20 PM84 °FPassing clouds.26 mph62%29.68 "HgN/A
3:50 PM84 °FPassing clouds.26 mph62%29.68 "HgN/A
3:20 PM84 °FPassing clouds.24 mph62%29.68 "HgN/A
2:50 PM84 °FPassing clouds.25 mph62%29.68 "HgN/A
2:20 PM86 °FPassing clouds.25 mph55%29.68 "HgN/A
1:50 PM86 °FSunny.26 mph59%29.68 "Hg10 mi
1:20 PM84 °FSunny.24 mph62%29.68 "Hg10 mi
12:50 PM84 °FSunny.25 mph58%29.68 "Hg10 mi
12:20 PM84 °FSunny.21 mph58%29.68 "Hg10 mi
11:50 AM84 °FSunny.20 mph58%29.68 "Hg10 mi
11:20 AM84 °FSunny.20 mph55%29.68 "Hg10 mi
10:50 AM84 °FSunny.18 mph55%29.68 "Hg10 mi
10:20 AM82 °FSunny.20 mph55%29.68 "Hg10 mi
9:50 AM82 °FSunny.16 mph55%29.68 "Hg10 mi
9:20 AM82 °FSunny.14 mph55%29.65 "Hg10 mi
8:50 AM82 °FSunny.10 mph55%29.65 "Hg10 mi
8:20 AM79 °FSunny.7 mph65%29.65 "Hg10 mi
7:50 AM79 °FSunny.3 mph65%29.65 "Hg10 mi
7:20 AM73 °FClear.7 mph78%29.65 "Hg10 mi
6:50 AM73 °FClear.2 mph78%29.65 "Hg10 mi
6:20 AM73 °FClear.7 mph78%29.65 "Hg10 mi
5:50 AM73 °FClear.2 mph78%29.65 "Hg10 mi
5:20 AM73 °FPassing clouds.7 mph78%29.68 "HgN/A
4:50 AM73 °FPassing clouds.7 mph78%29.68 "HgN/A
4:20 AM73 °FPassing clouds.6 mph78%29.68 "HgN/A
3:50 AM73 °FPassing clouds.7 mph78%29.68 "HgN/A
3:20 AM73 °FPassing clouds.5 mph78%29.68 "HgN/A
2:50 AM73 °FPassing clouds.8 mph78%29.68 "HgN/A
2:20 AM75 °FPassing clouds.2 mph74%29.68 "HgN/A
1:50 AM75 °FPassing clouds.5 mph74%29.68 "HgN/A
1:20 AM75 °FPassing clouds.6 mph74%29.68 "HgN/A
12:50 AM75 °FPassing clouds.8 mph74%29.68 "HgN/A
12:20 AM75 °FPassing clouds.7 mph89%29.68 "HgN/A
11:50 PM
Jul 31
75 °FPassing clouds.6 mph89%29.68 "HgN/A
11:20 PM75 °FPassing clouds.5 mph89%29.68 "HgN/A
10:50 PM81 °FClear.1 mph84%29.68 "Hg10 mi
10:20 PM81 °FClear.5 mph84%29.68 "Hg10 mi
9:50 PM81 °FClear.5 mph84%29.68 "Hg10 mi
9:20 PM81 °FSunny.6 mph79%29.68 "Hg10 mi
8:50 PM81 °FSunny.6 mph79%29.68 "Hg10 mi
8:20 PM82 °FSunny.5 mph74%29.68 "Hg10 mi
7:50 PM84 °FSunny.6 mph66%29.68 "Hg10 mi
7:20 PM84 °FSunny.7 mph66%29.68 "Hg10 mi
Weather by CustomWeather, © 2014

See weather overviewHow to use our weather pages